QPF
0.13 0.17 0.18 0.21 0.25 0.25 0.26 0.29 0.26 0.18 0.17 0.18 0.18 0.20 0.24 0.23 0.21 0.23 0.27 0.30 0.30 0.28 0.22 0.16 0.14 0.12 0.11 0.10 0.10 0.10 0.08 0.06 0.06 0.06 0.06 0.07 0.07 0.04 0.05 0.04 0.03 0.03 0.03
0.09 0.14 0.15 0.14 0.17 0.20 0.23 0.22 0.18 0.14 0.15 0.16 0.18 0.19 0.20 0.24 0.26 0.25 0.26 0.24 0.22 0.23 0.19 0.15 0.14 0.10 0.09 0.07 0.07 0.08 0.08 0.07 0.08 0.07 0.06 0.07 0.07 0.04 0.04 0.04 0.03 0.04 0.05
0.05 0.08 0.10 0.11 0.15 0.16 0.15 0.13 0.13 0.14 0.12 0.13 0.14 0.18 0.17 0.19 0.22 0.20 0.21 0.21 0.21 0.23 0.21 0.19 0.16 0.11 0.08 0.06 0.06 0.07 0.06 0.07 0.07 0.06 0.05 0.07 0.06 0.03 0.02 0.04 0.06 0.05 0.05
0.03 0.05 0.07 0.09 0.11 0.12 0.10 0.13 0.13 0.12 0.11 0.11 0.11 0.16 0.18 0.16 0.17 0.17 0.19 0.20 0.21 0.21 0.19 0.16 0.15 0.09 0.08 0.07 0.05 0.04 0.05 0.07 0.07 0.05 0.04 0.04 0.03 0.04 0.03 0.05 0.08 0.07 0.06
0.03 0.05 0.08 0.10 0.10 0.11 0.10 0.13 0.13 0.11 0.11 0.10 0.10 0.11 0.17 0.18 0.16 0.16 0.17 0.19 0.19 0.19 0.18 0.15 0.13 0.11 0.10 0.08 0.05 0.04 0.03 0.04 0.05 0.04 0.02 0.03 0.04 0.06 0.05 0.05 0.07 0.07 0.08
0.02 0.06 0.09 0.16 0.16 0.15 0.11 0.12 0.13 0.11 0.10 0.08 0.08 0.08 0.14 0.16 0.15 0.14 0.15 0.20 0.24 0.21 0.17 0.15 0.13 0.11 0.10 0.09 0.06 0.05 0.04 0.05 0.04 0.03 0.03 0.03 0.04 0.04 0.04 0.06 0.06 0.05 0.06
0.02 0.07 0.07 0.10 0.11 0.12 0.12 0.14 0.13 0.11 0.09 0.08 0.08 0.09 0.11 0.13 0.13 0.12 0.15 0.22 0.29 0.25 0.17 0.15 0.13 0.10 0.09 0.09 0.07 0.06 0.06 0.07 0.06 0.04 0.03 0.04 0.03 0.03 0.04 0.05 0.04 0.03 0.04
0.03 0.06 0.06 0.08 0.09 0.12 0.15 0.12 0.13 0.11 0.08 0.08 0.08 0.10 0.11 0.12 0.13 0.15 0.19 0.27 0.30 0.25 0.18 0.15 0.11 0.07 0.07 0.09 0.07 0.06 0.07 0.06 0.04 0.02 0.02 0.03 0.02 0.02 0.02 0.03 0.03 0.03 0.04
0.02 0.05 0.05 0.04 0.05 0.07 0.08 0.09 0.11 0.11 0.10 0.09 0.10 0.13 0.11 0.12 0.15 0.17 0.23 0.32 0.31 0.22 0.16 0.12 0.10 0.07 0.07 0.08 0.07 0.07 0.07 0.04 0.03 0.04 0.03 0.05 0.02 0.01 0.02 0.02 0.02 0.03 0.04
0.02 0.04 0.04 0.03 0.05 0.05 0.07 0.09 0.11 0.11 0.11 0.11 0.11 0.12 0.12 0.14 0.15 0.18 0.33 0.36 0.32 0.21 0.12 0.09 0.09 0.06 0.06 0.06 0.05 0.07 0.06 0.03 0.02 0.02 0.03 0.03 0.02 0.02 0.03 0.03 0.03 0.03 0.03
0.02 0.03 0.03 0.02 0.03 0.03 0.04 0.06 0.09 0.10 0.11 0.11 0.10 0.10 0.12 0.17 0.22 0.30 0.49 0.40 0.32 0.21 0.11 0.09 0.07 0.05 0.05 0.05 0.05 0.07 0.05 0.03 0.02 0.02 0.02 0.02 0.03 0.05 0.06 0.05 0.04 0.04 0.04
0.01 0.01 0.03 0.03 0.02 0.03 0.03 0.05 0.07 0.07 0.08 0.10 0.10 0.10 0.14 0.23 0.33 0.38 0.46 0.37 0.28 0.19 0.13 0.10 0.07 0.06 0.03 0.04 0.05 0.06 0.05 0.03 0.03 0.02 0.01 0.01 0.02 0.05 0.06 0.05 0.05 0.05 0.04
0.00 0.00 0.02 0.06 0.04 0.04 0.03 0.04 0.04 0.04 0.05 0.07 0.08 0.09 0.11 0.17 0.24 0.25 0.28 0.33 0.25 0.17 0.15 0.11 0.07 0.05 0.03 0.04 0.05 0.04 0.03 0.03 0.03 0.00 0.01 0.01 0.02 0.04 0.06 0.06 0.05 0.05 0.04
0.00 0.00 0.01 0.04 0.06 0.04 0.03 0.02 0.02 0.03 0.04 0.04 0.06 0.07 0.08 0.11 0.14 0.15 0.20 0.27 0.20 0.14 0.13 0.10 0.09 0.05 0.03 0.02 0.03 0.02 0.03 0.04 0.03 0.02 0.02 0.01 0.02 0.03 0.05 0.06 0.06 0.05 0.05
0.00 0.01 0.01 0.03 0.07 0.06 0.05 0.04 0.03 0.05 0.05 0.04 0.05 0.07 0.07 0.06 0.08 0.08 0.11 0.13 0.13 0.10 0.09 0.08 0.06 0.05 0.05 0.04 0.02 0.02 0.02 0.02 0.02 0.02 0.02 0.01 0.02 0.04 0.06 0.07 0.07 0.06 0.07
0.00 0.01 0.01 0.03 0.08 0.10 0.08 0.07 0.07 0.08 0.07 0.05 0.05 0.06 0.07 0.06 0.06 0.07 0.08 0.09 0.08 0.07 0.06 0.04 0.02 0.04 0.04 0.04 0.03 0.02 0.02 0.02 0.02 0.03 0.02 0.03 0.03 0.05 0.06 0.07 0.08 0.07 0.07
0.00 0.01 0.01 0.02 0.07 0.13 0.11 0.10 0.10 0.11 0.08 0.07 0.07 0.05 0.07 0.07 0.08 0.07 0.07 0.08 0.07 0.07 0.07 0.05 0.03 0.03 0.03 0.03 0.04 0.02 0.01 0.01 0.02 0.02 0.04 0.05 0.04 0.04 0.05 0.05 0.07 0.07 0.06
0.00 0.00 0.01 0.00 0.04 0.13 0.11 0.10 0.11 0.13 0.09 0.07 0.07 0.05 0.07 0.07 0.08 0.08 0.07 0.06 0.07 0.07 0.08 0.10 0.07 0.06 0.06 0.06 0.06 0.04 0.02 0.02 0.03 0.03 0.04 0.05 0.04 0.04 0.06 0.04 0.04 0.05 0.07
0.00 0.01 0.01 0.01 0.02 0.08 0.10 0.09 0.10 0.13 0.12 0.09 0.08 0.09 0.08 0.07 0.07 0.08 0.08 0.08 0.06 0.07 0.10 0.09 0.08 0.07 0.09 0.09 0.05 0.05 0.03 0.02 0.03 0.03 0.05 0.05 0.04 0.05 0.07 0.05 0.03 0.03 0.05
0.00 0.01 0.01 0.01 0.01 0.03 0.04 0.06 0.09 0.13 0.13 0.10 0.09 0.10 0.07 0.06 0.06 0.08 0.08 0.08 0.06 0.08 0.12 0.12 0.11 0.11 0.11 0.10 0.05 0.05 0.03 0.02 0.02 0.03 0.04 0.04 0.04 0.04 0.04 0.06 0.07 0.05 0.03
0.00 0.00 0.00 0.01 0.01 0.02 0.02 0.03 0.07 0.16 0.14 0.12 0.10 0.08 0.06 0.06 0.06 0.10 0.10 0.10 0.09 0.09 0.12 0.13 0.11 0.11 0.10 0.10 0.10 0.09 0.07 0.04 0.03 0.02 0.02 0.03 0.03 0.03 0.04 0.06 0.06 0.07 0.06
0.00 0.00 0.00 0.01 0.01 0.01 0.01 0.02 0.05 0.12 0.10 0.08 0.08 0.07 0.05 0.06 0.09 0.09 0.13 0.10 0.09 0.11 0.13 0.13 0.11 0.09 0.08 0.09 0.10 0.12 0.10 0.06 0.03 0.01 0.02 0.03 0.03 0.04 0.03 0.03 0.03 0.05 0.05
0.00 0.00 0.00 0.00 0.01 0.01 0.01 0.02 0.04 0.08 0.05 0.04 0.04 0.06 0.05 0.06 0.10 0.12 0.11 0.11 0.12 0.12 0.14 0.13 0.10 0.08 0.09 0.08 0.08 0.10 0.10 0.09 0.06 0.03 0.02 0.02 0.02 0.05 0.02 0.02 0.03 0.04 0.04
0.00 0.00 0.00 0.00 0.01 0.01 0.01 0.02 0.02 0.01 0.02 0.02 0.03 0.04 0.05 0.05 0.07 0.11 0.11 0.12 0.13 0.11 0.13 0.10 0.07 0.08 0.09 0.10 0.09 0.09 0.08 0.08 0.09 0.07 0.05 0.04 0.04 0.04 0.04 0.03 0.03 0.04 0.05
0.00 0.01 0.01 0.02 0.03 0.05 0.03 0.02 0.02 0.01 0.02 0.02 0.02 0.03 0.05 0.05 0.06 0.09 0.13 0.13 0.13 0.11 0.10 0.10 0.09 0.08 0.06 0.07 0.08 0.07 0.06 0.06 0.07 0.06 0.08 0.09 0.07 0.05 0.04 0.04 0.03 0.03 0.03
0.00 0.00 0.01 0.01 0.02 0.03 0.03 0.02 0.01 0.01 0.01 0.02 0.02 0.03 0.03 0.04 0.05 0.07 0.12 0.14 0.12 0.09 0.08 0.09 0.08 0.07 0.07 0.07 0.07 0.06 0.06 0.07 0.07 0.07 0.07 0.11 0.11 0.10 0.09 0.06 0.04 0.03 0.04
MSLP
1009.25 1009.17 1009.17 1009.22 1009.28 1009.31 1009.30 1009.27 1009.23 1009.24 1009.34 1009.54 1009.86 1010.25 1010.69 1011.10 1011.47 1011.78 1012.03 1012.26 1012.50 1012.78 1013.12 1013.51 1013.92 1014.32 1014.67 1014.95 1015.15 1015.31 1015.44 1015.57 1015.74 1015.95 1016.19 1016.44 1016.67 1016.87 1017.03 1017.14 1017.23 1017.30 1017.40
1009.14 1009.16 1009.27 1009.45 1009.66 1009.83 1009.96 1010.03 1010.07 1010.11 1010.20 1010.37 1010.63 1010.96 1011.33 1011.69 1012.01 1012.29 1012.51 1012.72 1012.95 1013.21 1013.53 1013.89 1014.28 1014.65 1014.98 1015.24 1015.43 1015.56 1015.67 1015.79 1015.94 1016.14 1016.38 1016.64 1016.89 1017.12 1017.30 1017.44 1017.54 1017.62 1017.70
1009.04 1009.16 1009.39 1009.70 1010.02 1010.31 1010.54 1010.69 1010.80 1010.87 1010.97 1011.13 1011.36 1011.64 1011.96 1012.27 1012.56 1012.80 1013.00 1013.18 1013.37 1013.61 1013.90 1014.24 1014.61 1014.97 1015.28 1015.52 1015.69 1015.80 1015.88 1015.97 1016.09 1016.27 1016.50 1016.77 1017.04 1017.29 1017.50 1017.67 1017.79 1017.89 1017.99
1008.99 1009.21 1009.54 1009.94 1010.35 1010.73 1011.03 1011.25 1011.40 1011.51 1011.63 1011.79 1012.01 1012.28 1012.57 1012.86 1013.11 1013.32 1013.48 1013.62 1013.78 1013.98 1014.25 1014.57 1014.92 1015.27 1015.57 1015.80 1015.95 1016.03 1016.08 1016.13 1016.22 1016.37 1016.58 1016.84 1017.13 1017.40 1017.65 1017.85 1018.01 1018.14 1018.26
1009.00 1009.30 1009.70 1010.17 1010.64 1011.06 1011.41 1011.68 1011.86 1012.01 1012.16 1012.35 1012.58 1012.86 1013.15 1013.43 1013.65 1013.83 1013.95 1014.05 1014.17 1014.33 1014.57 1014.87 1015.21 1015.55 1015.84 1016.06 1016.20 1016.26 1016.28 1016.29 1016.35 1016.47 1016.66 1016.91 1017.20 1017.50 1017.78 1018.02 1018.22 1018.38 1018.53
1009.08 1009.44 1009.88 1010.37 1010.86 1011.31 1011.68 1011.97 1012.18 1012.37 1012.56 1012.78 1013.05 1013.36 1013.67 1013.94 1014.16 1014.31 1014.39 1014.45 1014.52 1014.65 1014.85 1015.13 1015.46 1015.79 1016.08 1016.30 1016.42 1016.46 1016.46 1016.45 1016.47 1016.57 1016.75 1017.00 1017.30 1017.62 1017.92 1018.19 1018.42 1018.62 1018.80
1009.23 1009.60 1010.05 1010.54 1011.03 1011.47 1011.83 1012.12 1012.36 1012.57 1012.81 1013.08 1013.40 1013.75 1014.09 1014.37 1014.59 1014.71 1014.77 1014.79 1014.82 1014.91 1015.09 1015.34 1015.65 1015.98 1016.26 1016.47 1016.58 1016.62 1016.60 1016.57 1016.59 1016.68 1016.86 1017.12 1017.44 1017.77 1018.09 1018.37 1018.63 1018.84 1019.03
1009.42 1009.78 1010.21 1010.68 1011.14 1011.55 1011.89 1012.17 1012.42 1012.66 1012.93 1013.24 1013.61 1014.00 1014.37 1014.68 1014.89 1015.01 1015.04 1015.03 1015.04 1015.10 1015.25 1015.48 1015.77 1016.08 1016.36 1016.56 1016.66 1016.69 1016.67 1016.65 1016.68 1016.79 1016.99 1017.27 1017.61 1017.95 1018.29 1018.58 1018.83 1019.05 1019.24
1009.62 1009.95 1010.35 1010.79 1011.21 1011.58 1011.90 1012.16 1012.40 1012.65 1012.94 1013.29 1013.68 1014.10 1014.49 1014.82 1015.04 1015.16 1015.18 1015.16 1015.15 1015.20 1015.33 1015.54 1015.81 1016.10 1016.36 1016.54 1016.64 1016.67 1016.66 1016.67 1016.72 1016.87 1017.11 1017.43 1017.80 1018.17 1018.51 1018.80 1019.04 1019.23 1019.40
1009.80 1010.11 1010.48 1010.88 1011.27 1011.61 1011.89 1012.13 1012.35 1012.59 1012.88 1013.23 1013.64 1014.07 1014.48 1014.81 1015.05 1015.17 1015.20 1015.18 1015.17 1015.21 1015.33 1015.53 1015.78 1016.05 1016.28 1016.45 1016.54 1016.57 1016.58 1016.61 1016.72 1016.92 1017.21 1017.58 1017.99 1018.39 1018.74 1019.02 1019.23 1019.39 1019.53
1009.94 1010.24 1010.60 1010.98 1011.34 1011.65 1011.91 1012.12 1012.32 1012.53 1012.80 1013.14 1013.53 1013.95 1014.35 1014.68 1014.93 1015.06 1015.12 1015.12 1015.13 1015.18 1015.30 1015.48 1015.71 1015.95 1016.16 1016.30 1016.38 1016.41 1016.44 1016.51 1016.66 1016.92 1017.28 1017.70 1018.16 1018.59 1018.95 1019.22 1019.41 1019.53 1019.63
1010.03 1010.34 1010.71 1011.09 1011.44 1011.74 1011.97 1012.16 1012.32 1012.50 1012.73 1013.03 1013.39 1013.78 1014.16 1014.48 1014.73 1014.89 1014.97 1015.01 1015.05 1015.12 1015.25 1015.43 1015.65 1015.86 1016.03 1016.14 1016.20 1016.23 1016.27 1016.37 1016.56 1016.87 1017.29 1017.77 1018.28 1018.74 1019.12 1019.40 1019.57 1019.66 1019.73
1010.07 1010.40 1010.79 1011.18 1011.54 1011.84 1012.07 1012.24 1012.38 1012.52 1012.70 1012.95 1013.26 1013.60 1013.95 1014.26 1014.51 1014.69 1014.80 1014.88 1014.96 1015.07 1015.22 1015.40 1015.60 1015.79 1015.93 1016.02 1016.05 1016.07 1016.11 1016.22 1016.44 1016.79 1017.25 1017.77 1018.32 1018.82 1019.22 1019.51 1019.69 1019.77 1019.81
1010.05 1010.42 1010.83 1011.25 1011.63 1011.94 1012.17 1012.33 1012.45 1012.56 1012.71 1012.90 1013.16 1013.45 1013.76 1014.06 1014.31 1014.50 1014.65 1014.77 1014.90 1015.04 1015.21 1015.40 1015.60 1015.77 1015.88 1015.94 1015.96 1015.95 1015.98 1016.09 1016.31 1016.67 1017.15 1017.70 1018.26 1018.79 1019.23 1019.54 1019.74 1019.83 1019.88
1009.98 1010.38 1010.82 1011.26 1011.66 1011.99 1012.23 1012.40 1012.51 1012.60 1012.71 1012.87 1013.08 1013.33 1013.61 1013.89 1014.13 1014.35 1014.53 1014.69 1014.85 1015.02 1015.21 1015.42 1015.61 1015.77 1015.88 1015.92 1015.91 1015.89 1015.90 1015.99 1016.19 1016.53 1016.99 1017.53 1018.10 1018.64 1019.10 1019.45 1019.68 1019.81 1019.88
1009.87 1010.29 1010.75 1011.20 1011.61 1011.95 1012.20 1012.38 1012.49 1012.59 1012.69 1012.82 1013.01 1013.23 1013.48 1013.74 1013.99 1014.21 1014.41 1014.60 1014.78 1014.98 1015.20 1015.42 1015.62 1015.79 1015.89 1015.93 1015.92 1015.89 1015.88 1015.93 1016.09 1016.37 1016.78 1017.27 1017.81 1018.35 1018.82 1019.20 1019.48 1019.67 1019.78
1009.75 1010.17 1010.61 1011.05 1011.45 1011.79 1012.06 1012.25 1012.39 1012.49 1012.60 1012.73 1012.90 1013.11 1013.35 1013.59 1013.84 1014.06 1014.28 1014.48 1014.69 1014.91 1015.14 1015.37 1015.60 1015.78 1015.90 1015.96 1015.96 1015.93 1015.90 1015.91 1016.01 1016.22 1016.54 1016.96 1017.43 1017.93 1018.39 1018.80 1019.12 1019.36 1019.54
1009.62 1010.01 1010.42 1010.83 1011.21 1011.54 1011.81 1012.02 1012.18 1012.30 1012.43 1012.57 1012.74 1012.95 1013.17 1013.42 1013.65 1013.88 1014.10 1014.31 1014.53 1014.76 1015.01 1015.27 1015.51 1015.73 1015.89 1015.99 1016.02 1016.01 1015.97 1015.95 1015.98 1016.09 1016.31 1016.61 1016.99 1017.41 1017.84 1018.25 1018.60 1018.90 1019.14
1009.49 1009.84 1010.20 1010.57 1010.91 1011.22 1011.49 1011.71 1011.89 1012.04 1012.19 1012.35 1012.53 1012.73 1012.96 1013.19 1013.43 1013.65 1013.87 1014.09 1014.32 1014.56 1014.82 1015.10 1015.38 1015.64 1015.86 1016.01 1016.10 1016.12 1016.09 1016.04 1016.01 1016.03 1016.12 1016.29 1016.55 1016.86 1017.22 1017.59 1017.95 1018.28 1018.58
1009.32 1009.64 1009.96 1010.28 1010.59 1010.88 1011.15 1011.38 1011.57 1011.75 1011.91 1012.08 1012.26 1012.47 1012.69 1012.92 1013.15 1013.38 1013.60 1013.82 1014.05 1014.31 1014.58 1014.89 1015.21 1015.52 1015.81 1016.03 1016.19 1016.26 1016.25 1016.20 1016.12 1016.04 1016.01 1016.05 1016.16 1016.34 1016.60 1016.91 1017.24 1017.58 1017.90
1009.09 1009.39 1009.69 1009.98 1010.27 1010.56 1010.83 1011.07 1011.28 1011.47 1011.64 1011.81 1011.99 1012.18 1012.39 1012.61 1012.84 1013.07 1013.30 1013.53 1013.77 1014.04 1014.33 1014.67 1015.02 1015.39 1015.74 1016.05 1016.27 1016.41 1016.45 1016.41 1016.30 1016.15 1016.01 1015.91 1015.87 1015.92 1016.05 1016.26 1016.53 1016.85 1017.18
1008.75 1009.06 1009.36 1009.66 1009.97 1010.27 1010.56 1010.82 1011.04 1011.24 1011.41 1011.56 1011.72 1011.90 1012.09 1012.30 1012.53 1012.76 1013.00 1013.24 1013.50 1013.78 1014.10 1014.45 1014.85 1015.26 1015.66 1016.04 1016.34 1016.55 1016.65 1016.64 1016.52 1016.33 1016.10 1015.89 1015.72 1015.62 1015.62 1015.72 1015.91 1016.17 1016.48
1008.24 1008.60 1008.95 1009.30 1009.66 1010.00 1010.33 1010.62 1010.87 1011.07 1011.23 1011.36 1011.49 1011.63 1011.80 1011.99 1012.21 1012.45 1012.71 1012.97 1013.25 1013.55 1013.89 1014.26 1014.67 1015.11 1015.56 1015.98 1016.35 1016.63 1016.80 1016.83 1016.73 1016.53 1016.26 1015.96 1015.69 1015.47 1015.35 1015.33 1015.42 1015.62 1015.88
1007.54 1007.97 1008.41 1008.85 1009.29 1009.72 1010.11 1010.45 1010.73 1010.93 1011.08 1011.19 1011.28 1011.39 1011.53 1011.70 1011.92 1012.17 1012.44 1012.73 1013.03 1013.34 1013.68 1014.06 1014.47 1014.92 1015.38 1015.84 1016.25 1016.59 1016.81 1016.90 1016.86 1016.68 1016.40 1016.07 1015.73 1015.44 1015.22 1015.11 1015.11 1015.23 1015.44
1006.67 1007.19 1007.73 1008.28 1008.83 1009.36 1009.84 1010.25 1010.57 1010.79 1010.93 1011.01 1011.08 1011.15 1011.26 1011.41 1011.63 1011.89 1012.18 1012.48 1012.80 1013.13 1013.47 1013.83 1014.22 1014.65 1015.10 1015.56 1015.99 1016.37 1016.65 1016.80 1016.82 1016.70 1016.46 1016.14 1015.80 1015.47 1015.20 1015.02 1014.96 1015.01 1015.17
1005.70 1006.30 1006.93 1007.59 1008.25 1008.89 1009.47 1009.95 1010.32 1010.57 1010.72 1010.79 1010.84 1010.88 1010.97 1011.12 1011.33 1011.59 1011.90 1012.22 1012.55 1012.88 1013.20 1013.53 1013.89 1014.28 1014.69 1015.13 1015.56 1015.95 1016.27 1016.49 1016.58 1016.53 1016.36 1016.11 1015.80 1015.49 1015.22 1015.03 1014.94 1014.96 1015.09
Thickness
5779 5780 5774 5774 5774 5774 5775 5775 5775 5775 5775 5775 5775 5774 5774 5773 5772 5772 5771 5770 5770 5769 5768 5767 5766 5765 5764 5763 5763 5762 5760 5760 5759 5758 5757 5756 5755 5753 5753 5753 5753 5753 5750
5781 5779 5773 5773 5773 5772 5773 5773 5773 5773 5773 5773 5773 5772 5771 5771 5770 5769 5768 5768 5767 5767 5766 5765 5764 5763 5762 5762 5761 5760 5759 5758 5757 5757 5756 5755 5753 5752 5751 5752 5754 5753 5749
5780 5778 5774 5772 5771 5771 5771 5771 5771 5772 5771 5771 5771 5770 5769 5768 5768 5768 5766 5766 5765 5764 5763 5763 5762 5761 5761 5760 5759 5758 5758 5757 5756 5756 5756 5757 5753 5751 5751 5751 5750 5749 5748
5780 5778 5774 5770 5769 5770 5770 5770 5770 5770 5770 5770 5769 5769 5768 5767 5766 5766 5764 5764 5763 5763 5762 5761 5760 5759 5758 5758 5757 5757 5756 5755 5755 5756 5759 5759 5756 5751 5750 5750 5749 5748 5747
5780 5777 5772 5769 5769 5769 5768 5769 5769 5769 5768 5768 5768 5767 5766 5765 5764 5764 5763 5762 5762 5761 5761 5760 5759 5758 5757 5756 5756 5755 5755 5754 5755 5757 5759 5758 5755 5750 5749 5749 5748 5747 5746
5780 5778 5772 5769 5768 5768 5767 5767 5767 5767 5767 5767 5766 5765 5765 5764 5763 5762 5761 5760 5760 5759 5759 5758 5757 5756 5755 5755 5754 5754 5753 5753 5755 5759 5758 5757 5754 5750 5749 5748 5747 5746 5745
5781 5779 5774 5769 5768 5767 5766 5766 5766 5766 5765 5765 5764 5764 5763 5762 5761 5761 5760 5759 5758 5757 5757 5756 5755 5755 5754 5753 5753 5753 5752 5753 5758 5758 5757 5756 5753 5749 5748 5748 5747 5746 5744
5782 5779 5774 5769 5767 5766 5766 5765 5765 5765 5764 5764 5763 5762 5762 5761 5761 5760 5759 5758 5756 5755 5755 5755 5754 5753 5752 5752 5752 5752 5752 5753 5757 5758 5758 5756 5750 5749 5748 5747 5746 5745 5744
5783 5781 5777 5775 5770 5767 5765 5765 5764 5764 5763 5763 5762 5762 5761 5761 5760 5759 5758 5757 5756 5755 5754 5754 5753 5752 5751 5751 5751 5751 5752 5754 5758 5758 5757 5754 5750 5748 5747 5747 5746 5745 5744
5782 5781 5778 5776 5773 5772 5769 5764 5763 5763 5763 5762 5762 5761 5761 5760 5759 5758 5757 5756 5755 5754 5754 5753 5753 5751 5751 5751 5751 5751 5752 5754 5759 5759 5758 5754 5749 5748 5747 5746 5745 5744 5743
5779 5780 5780 5778 5775 5774 5772 5767 5765 5763 5762 5762 5762 5761 5761 5762 5761 5759 5757 5755 5754 5754 5753 5753 5752 5751 5751 5751 5751 5751 5752 5757 5759 5760 5757 5752 5750 5748 5747 5746 5745 5744 5743
5779 5780 5779 5779 5778 5776 5774 5770 5768 5767 5764 5764 5763 5763 5762 5761 5761 5760 5756 5755 5754 5753 5752 5752 5751 5751 5752 5754 5753 5753 5756 5757 5758 5759 5756 5752 5750 5748 5747 5746 5745 5744 5743
5784 5781 5781 5779 5778 5777 5775 5772 5770 5769 5766 5765 5763 5763 5762 5763 5762 5760 5759 5756 5755 5754 5755 5753 5753 5756 5756 5756 5756 5757 5757 5759 5759 5760 5757 5752 5750 5748 5747 5746 5745 5744 5743
5786 5783 5783 5780 5777 5775 5775 5773 5771 5770 5769 5768 5764 5764 5764 5764 5762 5761 5759 5759 5758 5757 5756 5756 5756 5756 5756 5755 5756 5757 5758 5759 5760 5760 5756 5752 5750 5749 5748 5747 5746 5745 5743
5787 5785 5783 5780 5777 5774 5772 5772 5773 5771 5771 5769 5766 5764 5764 5764 5763 5762 5760 5759 5760 5759 5757 5756 5757 5756 5755 5756 5757 5757 5758 5759 5759 5760 5757 5753 5751 5750 5749 5748 5746 5746 5744
5789 5786 5785 5781 5778 5775 5773 5773 5773 5773 5770 5771 5768 5766 5764 5765 5763 5762 5760 5759 5760 5759 5758 5758 5758 5756 5756 5757 5758 5758 5758 5759 5759 5758 5759 5756 5753 5751 5750 5749 5748 5747 5745
5793 5790 5786 5783 5781 5777 5777 5776 5775 5774 5773 5772 5769 5767 5765 5764 5763 5762 5762 5760 5760 5759 5757 5757 5758 5758 5758 5758 5758 5758 5759 5759 5760 5759 5759 5759 5757 5753 5752 5751 5749 5748 5747
5797 5792 5788 5788 5784 5780 5778 5776 5777 5777 5775 5773 5771 5769 5766 5765 5763 5762 5762 5762 5760 5760 5759 5758 5759 5758 5758 5758 5758 5759 5760 5759 5759 5759 5760 5759 5759 5758 5755 5753 5751 5750 5748
5800 5795 5790 5789 5785 5782 5780 5778 5777 5775 5774 5773 5771 5770 5767 5766 5764 5763 5762 5761 5761 5760 5759 5760 5760 5759 5757 5757 5758 5758 5760 5760 5760 5761 5760 5760 5759 5758 5758 5754 5752 5751 5749
5805 5799 5794 5791 5787 5784 5782 5779 5778 5776 5775 5775 5773 5771 5768 5767 5765 5765 5763 5762 5762 5760 5759 5758 5757 5757 5757 5756 5759 5759 5760 5761 5762 5762 5762 5762 5761 5760 5759 5757 5755 5753 5750
5807 5802 5797 5793 5790 5786 5784 5781 5778 5776 5777 5776 5776 5773 5770 5768 5767 5765 5766 5762 5761 5760 5758 5759 5757 5756 5756 5757 5754 5754 5758 5762 5762 5762 5762 5763 5762 5761 5759 5757 5756 5756 5754
5811 5806 5801 5796 5794 5790 5788 5784 5782 5780 5779 5778 5777 5774 5772 5770 5768 5768 5764 5764 5763 5760 5758 5757 5755 5756 5756 5757 5753 5750 5749 5753 5757 5764 5762 5761 5761 5762 5761 5759 5757 5755 5754
5815 5811 5808 5802 5798 5794 5791 5788 5785 5781 5780 5779 5776 5775 5774 5772 5770 5768 5767 5766 5763 5763 5760 5757 5756 5754 5753 5755 5756 5751 5746 5746 5753 5759 5760 5760 5759 5759 5760 5760 5758 5757 5755
5822 5818 5812 5806 5801 5797 5793 5790 5786 5782 5780 5780 5779 5778 5775 5773 5771 5770 5768 5766 5764 5763 5760 5759 5759 5757 5753 5752 5754 5754 5753 5752 5747 5748 5755 5759 5759 5757 5758 5759 5759 5757 5755
5827 5822 5816 5809 5803 5799 5795 5792 5787 5786 5784 5783 5781 5778 5775 5775 5772 5771 5768 5766 5764 5764 5762 5759 5758 5757 5756 5754 5753 5752 5751 5750 5750 5746 5746 5750 5754 5757 5757 5756 5756 5756 5754
5830 5825 5819 5810 5804 5801 5797 5794 5789 5787 5785 5782 5779 5778 5776 5776 5775 5772 5770 5768 5766 5765 5762 5760 5758 5757 5756 5755 5754 5753 5751 5750 5749 5748 5745 5746 5747 5752 5755 5754 5754 5753 5751